Flag for U.S.A. Weather past 2 weeks in Hampton, Virginia, U.S.A.

Now
70 °F

Sunny.


Feels Like: 70 °F
Forecast: 60 / 76 °F
Wind: 6 mph from North

Location: Langley Air Force Base

Current Time: May 22, 2015 at 2:14:57 PM

Latest Report: May 22, 2015 at 1:58 PM


Visibility: 9 mi

Pressure: 30.15 "Hg

Humidity: 36%

Dew point: 42 °F

Location of HamptonLocation

Historic Weather in Hampton — Graph

°F

Hampton temperature yesterday

Maximum temperature yesterday: 64 °F (at 1:58 AM)
Minimum temperature yesterday: 56 °F (at 11:58 PM)
Average temperature yesterday: 62 °F

Past Weeks' High & Low Weather Summary

 TemperatureHumidityPressure
High88 °F (May 12, 2:58 PM)100% (May 9, 12:03 AM)30.45 "Hg (May 9, 12:03 AM)
Low50 °F (May 15, 4:58 AM)38% (May 22, 12:58 PM)29.81 "Hg (May 21, 5:03 PM)
Average69 °F76%30.11 "Hg
* Reported May 7 12:58 PM — May 22 12:58 PM, Hampton, Weather by CustomWeather, © 2015

Note: Actual official high and low records may vary slightly from our data, if they occured in-between our weather recording intervals... More about our weather records

Advertising

Hampton weather history for previous 24 hours

 ConditionsComfort  
Time TempWeatherWind HumidityBarometerVisibility
12:58 PM
Fri, May 22
69 °FSunny.2 mph38%30.15 "Hg10 mi
11:58 AM68 °FSunny.10 mph42%30.15 "Hg9 mi
10:58 AM65 °FSunny.9 mph48%30.14 "Hg10 mi
9:58 AM63 °FSunny.9 mph52%30.13 "Hg10 mi
8:58 AM60 °FSunny.10 mph58%30.12 "Hg10 mi
7:58 AM57 °FSunny.15 mph66%30.10 "Hg10 mi
6:58 AM55 °FSunny.13 mph75%30.07 "Hg10 mi
5:58 AM53 °FClear.9 mph83%30.06 "Hg10 mi
4:58 AM52 °FClear.7 mph91%30.03 "Hg10 mi
3:58 AM53 °FClear.8 mph92%29.99 "Hg10 mi
2:58 AM54 °FPassing clouds.8 mph89%29.97 "Hg10 mi
1:58 AM56 °FOvercast.10 mph87%29.96 "Hg10 mi
12:58 AM55 °FOvercast.9 mph88%29.96 "Hg10 mi
11:58 PM
Thu, May 21
56 °FLow clouds.8 mph89%29.93 "Hg10 mi
10:58 PM57 °FLow clouds.10 mph90%29.93 "Hg10 mi
9:58 PM58 °FOvercast.12 mph89%29.90 "Hg10 mi
8:58 PM58 °FOvercast.10 mph87%29.88 "Hg10 mi
7:58 PM58 °FOvercast.14 mph89%29.88 "Hg10 mi
6:58 PM59 °FOvercast.12 mph91%29.85 "Hg10 mi
6:01 PM59 °FLight rain. Overcast.13 mph94%29.82 "Hg7 mi
5:03 PM61 °FLight rain. Fog.15 mph88%29.81 "Hg1 mi
4:58 PM60 °FHeavy rain. Fog.12 mph93%29.84 "Hg1 mi
3:58 PM60 °FLight rain. Fog.15 mph95%29.83 "Hg6 mi
3:04 PM61 °FLight rain. Fog.10 mph94%29.83 "Hg4 mi
2:59 PM61 °FLight rain. Fog.13 mph94%29.84 "Hg6 mi
2:04 PM63 °FLight rain. Overcast.14 mph94%29.84 "Hg8 mi
Weather by CustomWeather, © 2015

See weather overviewHow to use our weather pages